Lid_Strength_Index
1 1 1 1 1 1 2 2 4 7 6 3 3 1 -0 -0 -0 -0 -0 1 2 3 3 3 2 1 1 1 1 0 0 1 0 -0 0 0 1 1
1 1 1 1 1 1 1 2 2 4 6 3 2 1 0 -0 0 -0 0 1 3 3 3 3 3 2 2 2 2 2 1 1 1 1 1 1 1 1
1 1 2 1 1 1 1 2 2 2 4 3 2 1 1 1 0 1 -0 0 3 4 3 3 4 4 3 3 3 2 2 2 2 1 2 2 1 0
2 2 2 1 2 1 1 2 2 2 3 4 2 2 1 1 1 1 1 -0 1 3 4 4 4 4 4 4 4 4 3 3 2 2 3 2 1 -0
1 2 2 1 2 2 2 2 2 2 2 3 3 2 3 2 2 2 2 2 2 3 5 5 4 4 4 5 5 4 5 5 5 5 4 3 2 -0
1 1 1 1 2 2 2 2 2 2 2 3 3 3 3 2 3 3 4 3 3 3 3 3 4 4 5 5 5 5 6 6 6 6 5 5 3 2
1 1 1 1 2 3 1 2 2 2 3 3 3 4 3 4 4 3 5 4 3 4 4 3 3 4 5 5 4 4 6 7 6 6 6 5 4 4
2 1 1 2 3 4 3 4 3 2 3 3 3 4 4 4 3 4 4 4 6 3 4 4 3 5 5 5 5 6 6 7 6 6 5 5 6 5
1 2 2 1 2 1 4 5 5 5 2 2 3 3 3 4 3 4 4 4 5 4 3 5 4 5 4 4 6 7 7 7 7 5 5 6 6 6
1 1 1 1 1 1 1 1 1 1 1 1 1 2 2 3 3 3 3 4 4 4 4 6 5 5 4 4 7 7 8 7 6 6 6 6 7 7
1 1 1 1 7 7 1 2 2 3 7 8 8 8 8 8 5 3 4 5 6 5 4 5 5 5 5 4 6 8 7 7 7 7 6 7 7 7
2 3 7 3 9 9 1 2 3 3 3 4 5 6 6 7 6 3 3 5 5 6 4 6 5 5 5 4 4 6 6 7 7 7 7 7 7 7
2 2 2 9 10 9 7 1 2 2 4 3 4 4 4 4 4 3 3 4 5 5 4 3 5 5 5 5 4 4 4 4 5 6 8 8 8 7
2 1 4 10 11 9 5 9 8 4 2 3 4 5 5 4 4 3 3 3 3 2 3 3 3 4 4 3 4 2 2 2 4 4 4 6 8 9
4 10 12 11 11 8 11 8 7 1 2 3 4 4 4 3 3 3 3 3 3 2 2 3 2 1 2 3 3 3 3 2 3 3 2 3 4 7
7 7 9 8 7 7 6 3 1 1 2 3 3 2 2 3 3 3 4 3 3 3 1 1 1 1 2 2 2 3 4 4 4 3 3 3 2 3
5 4 5 4 3 2 2 1 1 1 2 2 2 2 3 3 3 1 3 3 3 3 2 1 0 1 1 1 3 2 2 2 2 3 3 3 2 2
3 4 5 5 4 3 2 2 2 2 1 2 2 2 2 3 3 2 2 2 3 2 2 2 2 2 2 1 1 2 2 2 2 1 2 3 3 1
3 4 5 5 4 3 2 2 2 2 2 3 3 3 3 3 4 3 2 2 2 2 2 1 2 3 4 5 2 4 2 2 2 2 2 2 2 2
3 4 4 4 4 4 4 3 3 2 2 2 3 3 3 3 3 3 2 2 2 2 2 2 2 2 3 4 3 2 8 1 2 2 3 2 2 5
2 3 3 3 3 3 3 3 3 2 2 2 2 2 2 2 2 2 2 8 6 2 3 3 2 8 1 1 3 3 2 9 3 1 2 2 3 2
2 2 3 2 2 2 2 2 2 2 2 1 1 1 1 1 2 2 2 2 2 2 2 2 1 1 2 2 3 3 3 1 7 8 8 6 4 5
1 1 1 1 1 1 1 1 1 1 1 1 1 1 1 2 1 1 2 2 2 2 2 2 2 1 2 2 5 3 3 2 2 2 3 8 9 10